TimeMDT,TemperatureF,Dew PointF,Humidity,Sea Level PressureIn,VisibilityMPH,Wind Direction,Wind SpeedMPH,Gust SpeedMPH,PrecipitationIn,Events,Conditions,WindDirDegrees,DateUTC
12:15 AM,42.8,19.4,39,29.84,10.0,ENE,12.7,-,N/A,,Mostly Cloudy,60,2013-10-28 06:15:00
12:35 AM,44.6,21.2,39,29.84,10.0,ENE,12.7,-,N/A,,Overcast,70,2013-10-28 06:35:00
12:55 AM,42.8,21.2,42,29.84,10.0,East,6.9,-,N/A,,Overcast,80,2013-10-28 06:55:00
1:15 AM,42.8,23.0,46,29.83,10.0,SE,3.5,-,N/A,,Overcast,140,2013-10-28 07:15:00
1:35 AM,41.0,21.2,45,29.82,10.0,Calm,Calm,-,N/A,,Overcast,0,2013-10-28 07:35:00
1:55 AM,41.0,21.2,45,29.82,10.0,Calm,Calm,-,N/A,,Overcast,0,2013-10-28 07:55:00
2:15 AM,41.0,21.2,45,29.82,10.0,East,3.5,-,N/A,,Overcast,100,2013-10-28 08:15:00
2:35 AM,39.2,23.0,52,29.83,10.0,SSE,4.6,-,N/A,,Overcast,150,2013-10-28 08:35:00
2:55 AM,44.6,26.6,49,29.83,10.0,SE,10.4,29.9,N/A,,Overcast,130,2013-10-28 08:55:00
3:15 AM,42.8,30.2,61,29.84,10.0,SSE,12.7,28.8,N/A,,Light Drizzle,150,2013-10-28 09:15:00
3:35 AM,42.8,30.2,61,29.82,10.0,SE,10.4,16.1,N/A,,Overcast,140,2013-10-28 09:35:00
3:55 AM,44.6,28.4,53,29.82,10.0,SSW,8.1,-,N/A,,Overcast,210,2013-10-28 09:55:00
4:15 AM,41.0,26.6,57,29.83,10.0,Calm,Calm,-,N/A,,Overcast,0,2013-10-28 10:15:00
4:35 AM,41.0,26.6,57,29.83,10.0,South,10.4,-,N/A,,Overcast,180,2013-10-28 10:35:00
4:55 AM,41.0,28.4,61,29.83,10.0,South,5.8,10.4,N/A,,Overcast,180,2013-10-28 10:55:00
5:15 AM,41.0,30.2,65,29.84,10.0,South,13.8,19.6,N/A,,Overcast,190,2013-10-28 11:15:00
5:35 AM,39.2,32.0,75,29.84,10.0,South,9.2,16.1,N/A,,Light Drizzle,170,2013-10-28 11:35:00
5:55 AM,37.4,32.0,81,29.84,7.0,ESE,9.2,-,N/A,Rain,Light Rain,120,2013-10-28 11:55:00
6:15 AM,37.4,33.8,87,29.83,10.0,ENE,6.9,-,N/A,,Overcast,60,2013-10-28 12:15:00
6:35 AM,35.6,33.8,93,29.83,10.0,NE,11.5,-,N/A,Rain,Light Rain,40,2013-10-28 12:35:00
6:55 AM,35.6,33.8,93,29.83,10.0,East,4.6,-,N/A,Rain,Light Rain,80,2013-10-28 12:55:00
7:15 AM,35.6,33.8,93,29.84,10.0,ESE,6.9,-,N/A,Rain,Light Rain,120,2013-10-28 13:15:00
7:35 AM,35.6,35.6,100,29.83,10.0,ESE,12.7,-,N/A,,Drizzle,110,2013-10-28 13:35:00
7:55 AM,35.6,35.6,100,29.82,10.0,ENE,12.7,16.1,N/A,,Overcast,60,2013-10-28 13:55:00
8:15 AM,35.6,33.8,93,29.83,10.0,ENE,8.1,-,N/A,Rain,Light Rain,70,2013-10-28 14:15:00
8:35 AM,35.6,33.8,93,29.82,10.0,Calm,Calm,-,N/A,,Overcast,0,2013-10-28 14:35:00
8:55 AM,37.4,33.8,87,29.82,10.0,ESE,4.6,-,N/A,,Overcast,120,2013-10-28 14:55:00
9:15 AM,37.4,35.6,93,29.82,10.0,East,3.5,-,N/A,,Overcast,100,2013-10-28 15:15:00
9:35 AM,37.4,35.6,93,29.82,10.0,East,5.8,-,N/A,,Overcast,90,2013-10-28 15:35:00
9:55 AM,41.0,35.6,81,29.81,10.0,East,5.8,-,N/A,,Overcast,80,2013-10-28 15:55:00
10:15 AM,42.8,33.8,70,29.80,10.0,ESE,21.9,27.6,N/A,,Overcast,110,2013-10-28 16:15:00
10:35 AM,42.8,33.8,70,29.79,10.0,ESE,19.6,28.8,N/A,,Overcast,110,2013-10-28 16:35:00
10:55 AM,44.6,33.8,66,29.79,10.0,ESE,18.4,24.2,N/A,Thunderstorm,Overcast,110,2013-10-28 16:55:00
11:15 AM,46.4,33.8,62,29.78,10.0,ESE,27.6,35.7,N/A,,Mostly Cloudy,120,2013-10-28 17:15:00
11:35 AM,48.2,33.8,58,29.78,10.0,ESE,19.6,28.8,N/A,,Scattered Clouds,110,2013-10-28 17:35:00
11:55 AM,48.2,32.0,54,29.77,10.0,ESE,21.9,35.7,N/A,,Clear,110,2013-10-28 17:55:00
12:15 PM,48.2,32.0,54,29.75,10.0,ESE,26.5,33.4,N/A,,Clear,120,2013-10-28 18:15:00
12:35 PM,50.0,32.0,50,29.74,10.0,ESE,23.0,31.1,N/A,,Clear,120,2013-10-28 18:35:00
12:55 PM,48.2,32.0,54,29.73,10.0,ESE,25.3,33.4,N/A,,Scattered Clouds,110,2013-10-28 18:55:00
1:15 PM,50.0,32.0,50,29.72,10.0,ESE,24.2,36.8,N/A,,Scattered Clouds,120,2013-10-28 19:15:00
1:35 PM,50.0,30.2,47,29.71,10.0,ESE,27.6,34.5,N/A,,Clear,120,2013-10-28 19:35:00
1:55 PM,50.0,30.2,47,29.72,10.0,ESE,26.5,40.3,N/A,,Clear,110,2013-10-28 19:55:00
2:15 PM,50.0,28.4,43,29.71,10.0,SE,26.5,34.5,N/A,,Clear,130,2013-10-28 20:15:00
2:35 PM,50.0,28.4,43,29.71,10.0,ESE,26.5,35.7,N/A,,Clear,120,2013-10-28 20:35:00
2:55 PM,50.0,28.4,43,29.70,10.0,ESE,19.6,34.5,N/A,,Scattered Clouds,120,2013-10-28 20:55:00
3:15 PM,48.2,28.4,46,29.70,10.0,ESE,20.7,31.1,N/A,,Mostly Cloudy,120,2013-10-28 21:15:00
3:35 PM,50.0,28.4,43,29.68,10.0,ESE,26.5,33.4,N/A,,Mostly Cloudy,120,2013-10-28 21:35:00
3:55 PM,50.0,28.4,43,29.68,10.0,ESE,23.0,33.4,N/A,,Scattered Clouds,120,2013-10-28 21:55:00
4:15 PM,51.8,26.6,38,29.68,10.0,SE,20.7,34.5,N/A,,Scattered Clouds,130,2013-10-28 22:15:00
4:35 PM,51.8,26.6,38,29.67,10.0,ESE,24.2,35.7,N/A,,Scattered Clouds,120,2013-10-28 22:35:00
4:55 PM,50.0,24.8,37,29.67,10.0,ESE,21.9,31.1,N/A,,Clear,120,2013-10-28 22:55:00
5:15 PM,48.2,23.0,37,29.68,10.0,ESE,21.9,28.8,N/A,,Scattered Clouds,120,2013-10-28 23:15:00
5:35 PM,46.4,23.0,40,29.69,10.0,ESE,16.1,28.8,N/A,,Mostly Cloudy,120,2013-10-28 23:35:00
5:55 PM,46.4,23.0,40,29.69,10.0,ESE,19.6,27.6,N/A,,Overcast,120,2013-10-28 23:55:00
6:15 PM,44.6,23.0,43,29.69,10.0,ESE,18.4,-,N/A,,Mostly Cloudy,120,2013-10-29 00:15:00
6:35 PM,44.6,23.0,43,29.71,10.0,SE,15.0,24.2,N/A,,Scattered Clouds,130,2013-10-29 00:35:00
6:55 PM,44.6,23.0,43,29.73,10.0,SE,15.0,23.0,N/A,,Clear,130,2013-10-29 00:55:00
7:15 PM,42.8,23.0,46,29.74,10.0,SE,12.7,21.9,N/A,,Mostly Cloudy,130,2013-10-29 01:15:00
7:35 PM,42.8,23.0,46,29.77,10.0,South,12.7,17.3,N/A,,Overcast,190,2013-10-29 01:35:00
7:55 PM,42.8,24.8,49,29.79,10.0,South,18.4,33.4,N/A,,Overcast,190,2013-10-29 01:55:00
8:15 PM,41.0,24.8,53,29.78,10.0,South,15.0,19.6,N/A,,Scattered Clouds,170,2013-10-29 02:15:00
8:35 PM,39.2,24.8,56,29.79,10.0,South,10.4,-,N/A,,Clear,170,2013-10-29 02:35:00
8:55 PM,37.4,24.8,60,29.79,10.0,South,10.4,-,N/A,,Clear,190,2013-10-29 02:55:00
9:15 PM,35.6,24.8,65,29.80,10.0,SW,10.4,-,N/A,,Clear,220,2013-10-29 03:15:00
9:35 PM,35.6,24.8,65,29.81,10.0,SW,9.2,16.1,N/A,,Scattered Clouds,220,2013-10-29 03:35:00
9:55 PM,33.8,24.8,70,29.82,10.0,SSW,9.2,-,N/A,,Overcast,210,2013-10-29 03:55:00
10:15 PM,35.6,24.8,65,29.82,10.0,NNE,8.1,-,N/A,,Overcast,30,2013-10-29 04:15:00
10:35 PM,35.6,24.8,65,29.83,10.0,North,5.8,-,N/A,,Overcast,10,2013-10-29 04:35:00
10:55 PM,33.8,24.8,70,29.81,10.0,Calm,Calm,-,N/A,,Mostly Cloudy,0,2013-10-29 04:55:00
11:15 PM,33.8,28.4,81,29.83,10.0,West,6.9,-,N/A,,Scattered Clouds,260,2013-10-29 05:15:00
11:35 PM,33.8,28.4,81,29.83,10.0,West,5.8,-,N/A,,Overcast,260,2013-10-29 05:35:00
11:55 PM,33.8,26.6,75,29.84,10.0,WSW,5.8,-,N/A,,Overcast,250,2013-10-29 05:55:00